Dewpoint
41 43 42 43 42 43 43 43 43 44 44 44 45 45 45 44 44 44 40 43 41 42 42 42 43 42 42 42 43 43 44 44 43 44 44 45 44 44 43 43 43 43 42 42 41 42 42 43 42 42 40 40 39 38 38 37 37 37 36 36 36 35 35 35 35 27 18 22 25 22 23 23 23 23 23 24 25 27 28 26 26 26 26 26 26
42 42 42 42 42 42 42 41 43 42 42 43 43 44 43 42 42 39 41 42 41 42 42 42 41 41 41 41 41 41 42 44 42 41 41 42 42 44 43 42 42 42 41 42 40 41 41 41 42 40 39 39 38 38 38 37 37 36 35 36 35 34 35 35 33 26 19 17 22 22 22 23 22 23 23 23 23 25 24 26 27 26 26 26 25
41 41 41 41 41 40 39 40 40 40 41 41 41 41 41 39 38 41 41 40 38 40 41 40 40 40 40 40 40 40 41 41 41 40 41 41 42 41 42 42 42 42 41 41 41 40 40 40 40 39 37 37 37 37 36 36 36 36 35 35 34 34 33 33 27 22 19 19 20 20 20 21 21 22 23 24 25 24 24 25 25 26 27 26 26
40 39 39 40 39 37 39 39 37 38 39 41 40 40 40 40 38 39 40 39 39 38 38 40 39 39 40 39 39 39 39 39 40 39 40 41 41 41 41 41 41 41 42 41 41 40 39 39 39 38 36 36 36 35 34 35 35 35 34 33 34 33 32 27 25 22 21 18 15 18 19 19 22 23 24 24 23 24 24 25 25 25 25 26 25
38 39 38 39 38 38 39 38 38 38 39 40 40 40 39 39 38 40 39 39 39 37 37 37 38 39 40 40 39 39 39 39 40 39 39 39 40 41 41 41 40 40 41 41 39 40 39 39 39 37 35 36 34 34 33 33 34 34 34 33 33 31 26 25 24 22 21 21 16 19 19 21 21 22 23 23 23 23 23 25 24 24 23 23 23
37 38 38 38 39 38 39 37 38 39 39 39 39 38 37 37 38 38 39 40 38 37 38 37 38 39 39 39 39 39 38 39 39 40 39 38 38 39 40 40 40 40 40 40 39 39 39 39 38 36 35 35 34 33 32 32 32 32 32 31 31 26 23 20 20 19 20 19 18 19 20 22 24 25 24 26 27 26 25 24 19 18 18 17 17
36 37 37 37 39 39 39 39 40 39 38 38 37 37 37 36 37 38 36 37 38 38 37 37 36 37 38 38 38 38 38 38 39 39 38 38 38 39 39 39 39 39 39 39 39 38 38 38 37 35 35 35 34 32 30 30 29 29 29 29 26 22 19 17 16 17 18 20 22 22 23 26 27 27 26 26 25 25 23 22 22 19 16 15 13
36 36 36 37 38 40 40 39 38 38 37 36 37 36 36 36 36 35 35 36 37 38 38 37 37 36 37 37 37 37 37 38 38 38 38 37 37 38 38 38 38 38 37 37 37 37 37 37 36 35 35 35 34 31 29 28 27 27 26 24 23 22 21 21 22 24 24 23 23 23 24 27 27 26 25 24 23 23 22 21 21 20 17 14 12
35 35 36 37 39 40 40 38 36 36 36 37 37 36 36 36 35 35 36 36 37 37 37 37 37 37 36 36 36 36 36 38 38 38 38 37 37 37 37 37 37 37 37 36 36 36 36 35 35 34 34 33 32 31 29 28 27 26 25 25 24 23 24 25 26 26 26 26 27 27 27 26 27 26 25 23 24 25 22 18 16 15 15 17 19
34 35 36 37 38 38 38 37 37 35 36 37 37 36 35 35 35 35 36 36 36 36 36 36 37 37 37 36 35 36 36 37 36 37 37 37 37 37 37 37 36 36 36 35 35 34 34 34 34 32 32 32 31 30 30 29 28 27 25 25 25 26 26 26 26 27 28 27 27 27 27 27 26 26 25 25 24 23 19 17 18 18 18 19 19
34 34 36 36 36 36 36 36 35 36 36 36 35 35 35 34 34 35 35 35 35 35 35 36 36 36 36 36 35 35 36 35 36 38 38 38 37 36 36 36 36 36 36 35 35 34 33 33 32 32 31 31 31 30 30 29 29 28 27 27 27 28 28 28 29 29 29 29 28 28 28 27 27 27 26 25 24 22 21 19 20 19 19 19 18
34 35 35 35 35 35 36 35 35 36 35 36 35 35 34 34 34 34 35 34 35 34 34 35 35 35 35 35 35 35 35 35 37 38 38 38 37 36 36 36 35 36 35 35 35 33 32 31 31 31 31 30 29 30 30 29 29 29 29 30 31 31 32 30 30 30 31 29 27 28 29 28 27 26 26 25 23 21 20 20 21 20 20 20 20
34 34 35 34 35 35 34 35 35 35 35 35 34 34 34 34 34 34 35 35 32 34 35 34 35 34 34 34 35 35 35 36 37 37 38 38 38 36 35 35 34 34 35 34 33 32 31 30 29 29 29 30 30 30 29 29 29 29 30 31 32 33 34 34 33 32 31 30 29 28 29 28 27 26 26 24 24 22 22 22 21 21 21 21 21
34 34 34 34 34 34 34 34 34 35 35 34 33 33 33 34 34 34 34 33 34 34 33 34 34 34 34 34 34 34 33 34 36 37 36 37 37 37 34 33 33 33 33 32 32 30 30 29 28 27 27 29 29 30 29 29 30 30 31 31 32 32 33 34 33 32 32 31 30 29 28 28 27 26 26 26 23 23 23 22 22 22 22 22 22
33 33 33 33 33 33 33 33 34 34 34 34 33 34 34 34 34 34 34 34 34 34 34 34 33 33 33 33 33 33 33 34 35 36 36 37 37 37 34 33 32 32 32 31 30 29 28 28 27 27 27 29 29 29 29 30 30 30 31 31 31 31 31 31 31 31 30 30 30 29 28 27 26 26 26 26 25 24 24 23 24 24 23 20 19
33 33 33 33 33 33 32 33 33 33 33 33 33 34 34 34 34 34 33 33 33 32 33 32 33 32 32 32 31 32 32 34 35 35 36 36 36 35 33 32 32 31 31 29 28 27 27 27 26 27 27 27 29 30 30 30 30 30 30 30 30 30 30 31 32 31 30 29 29 28 27 28 28 26 27 26 26 26 27 25 23 18 17 17 17
32 33 33 33 33 33 32 32 33 33 33 33 33 34 34 34 34 32 32 33 32 32 32 32 32 32 31 30 31 31 31 33 34 34 35 36 36 34 32 31 31 30 29 27 26 25 25 26 26 26 27 27 29 30 31 30 30 30 30 29 29 29 29 31 33 33 33 32 32 32 31 30 30 29 29 30 28 27 24 21 18 17 16 16 15
32 32 32 32 33 32 32 32 32 33 33 33 33 34 33 33 33 32 33 33 32 32 31 31 30 30 30 30 30 30 30 31 33 34 34 35 35 33 32 31 30 29 28 25 26 26 26 28 27 27 27 28 30 32 32 31 30 30 29 28 28 27 28 30 31 31 32 31 31 30 30 30 30 30 30 29 29 27 21 18 17 14 11 13 12
32 32 32 32 32 32 32 31 31 32 32 33 33 33 33 33 32 28 31 31 32 30 29 30 29 28 28 29 30 30 29 30 32 33 34 35 34 33 31 30 29 27 26 25 25 25 26 27 27 28 27 29 32 34 33 31 31 30 29 28 27 26 27 28 28 28 29 29 29 28 26 26 24 23 25 26 25 23 19 18 14 13 11 12 13
31 31 31 31 31 31 31 31 31 31 32 32 32 32 32 30 29 29 29 29 30 27 27 28 28 28 26 27 28 29 28 29 31 33 34 35 35 32 30 28 27 26 25 24 24 25 27 27 27 28 30 31 33 34 34 33 31 30 30 28 27 26 27 27 28 28 27 26 26 24 22 20 18 17 17 19 20 19 19 16 13 10 7 7 6
31 31 31 30 30 31 31 30 30 31 31 32 32 30 29 30 28 26 27 27 25 26 26 26 26 26 25 25 25 26 28 29 30 31 33 34 35 33 29 28 27 25 23 23 24 25 26 26 27 30 31 33 35 35 34 34 32 30 30 29 28 28 28 26 27 27 25 24 23 21 20 19 18 17 16 15 16 16 17 16 12 10 7 4 1
30 30 30 30 30 30 30 30 28 29 29 28 29 29 25 25 26 26 25 24 25 26 23 24 25 25 22 23 24 26 28 30 29 31 32 33 35 34 28 27 26 24 23 23 25 26 26 27 28 31 33 34 35 35 35 34 32 30 30 31 31 31 27 26 27 26 24 22 21 19 18 17 15 14 13 12 11 11 9 10 13 8 5 4 5
29 29 28 28 28 29 28 27 27 27 27 26 26 28 24 23 22 23 23 23 24 24 23 23 22 23 21 22 23 26 27 29 29 29 31 33 34 33 31 28 28 25 24 23 25 26 27 28 29 31 33 34 35 35 35 34 32 31 32 32 32 30 28 26 25 23 21 20 19 17 15 13 12 11 10 9 6 6 6 4 3 5 4 6 7
28 27 27 27 27 27 27 26 25 24 24 25 24 25 24 22 21 23 23 24 24 24 24 22 22 22 22 22 23 24 26 27 29 29 30 33 35 33 31 30 29 25 25 24 26 27 27 28 30 32 34 34 35 35 34 33 31 33 33 32 31 29 25 24 22 21 19 18 17 15 13 9 10 9 7 7 5 3 2 -0 -0 -2 -1 -1 2
26 26 26 27 26 26 25 24 23 22 22 21 24 25 23 20 24 22 23 23 24 24 24 23 23 23 23 23 24 24 26 27 28 30 30 32 33 33 31 30 29 27 26 26 27 27 29 30 31 32 34 34 34 34 33 32 32 33 32 31 28 24 23 22 20 18 17 16 15 14 12 10 9 8 6 4 3 1 -2 -5 -5 -6 -7 -5 -4
25 25 26 26 26 24 23 24 22 21 21 21 24 25 25 25 25 24 23 24 24 24 24 23 23 23 24 24 24 24 26 27 28 29 31 31 31 31 30 30 29 28 26 26 28 29 30 31 32 33 33 34 33 32 30 31 32 32 31 28 23 22 21 19 18 17 16 15 14 13 11 8 5 3 0 -1 0 -4 -6 -9 -10 -7 -9 -9 -7
24 25 25 26 25 23 22 24 25 22 19 20 21 23 24 24 25 25 24 24 24 24 24 24 24 24 24 24 24 24 25 27 27 29 29 29 29 29 29 29 28 27 26 28 29 30 31 31 32 33 33 33 32 31 30 31 31 30 25 22 21 20 19 18 18 17 14 13 11 9 7 4 2 1 -3 -3 -6 -5 -5 -7 -11 -7 -9 -13 -12
24 25 25 25 25 24 23 23 24 24 22 22 23 23 23 24 25 26 26 25 25 25 24 24 25 25 25 24 24 24 25 26 27 28 28 28 28 28 28 27 27 26 27 28 29 30 31 32 33 32 32 31 30 29 29 26 23 21 20 19 18 17 18 19 16 13 12 10 7 4 1 -0 -2 -6 -5 -8 -9 -6 -5 -9 -11 -9 -8 -13 -14
24 24 24 24 24 23 23 23 23 23 23 21 22 24 25 25 26 26 25 26 27 26 26 26 26 26 26 25 24 23 24 25 27 29 28 29 28 28 27 27 27 26 27 29 29 30 31 31 30 29 28 26 25 23 22 20 19 18 17 16 15 15 14 13 12 9 7 7 6 5 1 -2 -5 -8 -7 -8 -8 -9 -11 -12 -11 -10 -14 -19 -16
23 24 25 25 24 24 23 23 21 22 22 22 22 22 24 27 27 26 26 27 28 29 29 27 26 26 25 25 25 24 24 25 29 30 30 30 30 29 28 29 28 27 29 30 30 29 29 28 26 25 24 23 22 21 20 18 16 15 15 17 13 13 12 10 8 6 6 7 5 3 -1 -3 -6 -9 -9 -8 -9 -10 -9 -2 -12 -12 -15 -16 -15
23 24 24 25 25 25 24 24 23 22 21 21 21 22 23 23 28 29 28 28 28 29 29 29 28 28 26 24 27 28 28 29 31 31 31 31 31 30 30 30 29 29 30 30 28 27 26 24 24 23 23 22 21 20 19 17 15 14 13 12 11 11 9 7 5 4 4 3 0 -1 -2 -2 -4 -7 -7 -9 -8 -11 -12 -11 -14 -16 -15 -15 -16
22 23 24 24 25 25 24 24 23 22 22 20 21 22 22 23 23 28 29 29 29 29 29 28 28 27 27 26 27 27 28 29 31 31 31 31 31 30 30 30 30 30 31 31 27 26 24 23 22 22 21 21 20 19 18 17 15 14 11 10 9 6 7 5 3 5 2 1 -1 -3 -4 -5 -5 -9 -11 -10 -9 -12 -13 -14 -15 -15 -18 -18 -16
21 22 23 24 24 25 25 24 23 23 22 22 21 22 22 23 23 23 25 29 29 29 29 29 28 28 28 28 27 27 28 30 31 31 31 30 30 30 30 30 30 31 31 28 25 24 23 22 21 20 20 20 19 18 17 16 14 13 12 11 8 6 5 4 4 3 1 1 -1 -3 -5 -9 -10 -10 -9 -9 -10 -15 -14 -14 -18 -15 -15 -15 -13
20 21 22 23 24 25 25 25 25 24 24 23 23 23 23 24 24 24 24 25 27 28 29 29 29 29 29 29 28 28 29 30 30 30 30 30 30 30 30 30 30 32 30 26 24 22 22 21 20 20 20 19 18 16 15 14 12 11 10 9 6 3 1 1 2 -0 -2 0 -2 -7 -9 -11 -10 -8 -12 -12 -14 -15 -14 -15 -18 -17 -19 -18 -17
19 20 22 22 24 25 26 26 26 25 25 24 24 24 24 24 25 25 25 25 25 25 26 28 29 29 29 29 29 28 29 30 31 31 31 31 31 30 30 29 28 28 27 24 23 22 21 20 20 19 18 17 16 15 14 12 11 10 8 6 3 1 -1 -1 -1 -3 -4 -8 -9 -9 -9 -8 -10 -11 -9 -11 -14 -15 -15 -16 -19 -16 -17 -19 -19
19 20 21 23 25 25 26 26 26 26 26 26 25 25 24 24 24 25 25 25 25 25 25 27 27 29 29 29 29 29 29 30 31 31 31 31 31 30 27 26 26 26 24 22 22 21 20 19 19 18 17 16 14 14 13 11 10 9 7 4 2 0 -1 -2 -5 -5 -8 -5 -9 -9 -8 -13 -12 -12 -16 -15 -13 -12 -16 -15 -17 -16 -17 -18 -18
17 18 20 22 24 25 26 27 27 27 27 26 25 25 24 24 24 25 25 25 25 25 25 26 26 27 28 27 28 28 29 30 31 31 31 30 30 29 27 26 25 24 22 20 20 19 19 18 18 17 15 14 13 12 10 9 7 5 6 3 2 1 -1 -2 -5 -6 -8 -11 -12 -8 -10 -10 -12 -14 -12 -12 -16 -17 -18 -17 -16 -14 -13 -13 -9
15 17 18 20 22 24 25 26 27 27 26 26 25 25 24 24 24 24 24 24 24 24 24 25 25 25 24 24 28 27 28 30 31 31 30 30 29 28 27 26 25 23 21 19 18 18 17 15 15 15 13 13 11 8 8 6 5 4 3 0 0 -0 0 -2 -3 -7 -9 -9 -10 -11 -11 -13 -13 -14 -14 -14 -14 -16 -17 -15 -16 -16 -13 -11 -12
14 17 19 20 22 23 24 26 26 26 26 25 25 24 24 24 23 23 24 24 23 23 23 24 24 24 24 25 26 27 27 28 28 27 28 27 27 26 26 24 23 22 20 18 16 16 15 12 10 11 10 9 8 7 6 4 2 1 -0 -2 -4 -4 -2 -7 -7 -8 -9 -9 -12 -14 -12 -13 -16 -16 -14 -15 -16 -16 -15 -14 -16 -15 -14 -15 -15
12 13 16 19 20 22 24 25 26 26 25 25 24 24 23 23 23 23 23 23 23 23 23 23 23 23 24 25 26 26 25 26 26 26 26 26 24 24 24 22 21 19 17 15 14 13 11 9 8 8 7 6 6 4 3 1 0 -2 -3 -3 -4 -4 -4 -5 -6 -8 -8 -10 -11 -13 -13 -14 -16 -18 -16 -16 -16 -18 -16 -15 -15 -15 -15 -17 -18
11 12 15 17 19 20 22 24 25 25 25 25 24 24 23 23 23 22 23 22 22 22 22 22 22 21 22 24 27 27 25 25 24 23 22 20 19 20 19 18 16 15 13 12 11 10 8 5 5 4 2 1 1 -0 -2 -2 -4 -4 -4 -4 -4 -3 -5 -8 -8 -9 -10 -12 -12 -14 -15 -16 -18 -16 -14 -14 -9 -13 -17 -16 -16 -15 -15 -15 -18
10 12 13 15 17 19 21 23 24 24 24 24 24 24 23 22 22 22 22 21 21 21 21 19 18 19 22 27 27 26 19 16 16 14 13 13 12 10 10 11 12 12 11 10 8 7 5 4 3 1 -1 -3 -3 -4 -4 -4 -4 -3 -4 -4 -4 -6 -8 -9 -10 -11 -11 -11 -13 -13 -15 -16 -17 -15 -13 -6 -15 -15 -17 -14 -15 -16 -17 -17 -17
10 12 13 15 16 18 20 22 23 24 24 24 23 20 21 22 21 21 20 20 20 19 18 16 17 18 19 21 19 18 13 13 10 10 9 6 5 4 5 5 5 5 5 6 6 6 5 4 1 0 -1 -2 -3 -3 -2 -2 -3 -3 -4 -5 -6 -7 -8 -11 -13 -12 -13 -13 -13 -14 -15 -14 -11 -14 -14 -13 -16 -15 -14 -15 -15 -17 -16 -18 -18
9 11 12 14 15 17 19 21 22 23 23 22 21 21 20 20 20 20 20 19 18 17 16 16 16 16 14 15 14 12 11 10 9 8 5 4 4 2 -1 -3 -3 -2 -2 -2 -2 -0 2 1 -2 -6 -6 -6 -6 -6 -5 -4 -3 -4 -5 -6 -8 -9 -10 -11 -11 -12 -12 -11 -12 -13 -14 -15 -12 -13 -13 -13 -15 -15 -15 -16 -15 -16 -18 -20 -21
6 7 9 10 13 16 19 20 21 22 21 20 21 21 19 20 19 19 19 18 16 15 15 15 15 13 11 10 11 11 10 9 5 4 4 4 -0 -2 -4 -5 -4 -4 -6 -8 -8 -4 -3 -4 -6 -9 -10 -11 -11 -10 -9 -9 -8 -6 -6 -6 -7 -9 -10 -10 -10 -11 -11 -12 -12 -12 -13 -13 -13 -12 -13 -13 -13 -13 -13 -14 -15 -14 -17 -18 -19
5 6 8 10 12 14 16 18 18 21 21 20 20 19 18 18 18 18 17 16 14 15 14 14 12 10 9 9 7 6 6 5 5 2 -1 -3 -4 -5 -5 -6 -6 -6 -7 -9 -9 -7 -6 -6 -6 -7 -10 -12 -12 -12 -12 -12 -11 -10 -9 -8 -8 -8 -10 -11 -13 -13 -12 -12 -11 -12 -12 -13 -13 -13 -12 -13 -13 -13 -13 -15 -17 -17 -17 -18 -18
4 5 7 10 12 14 15 16 18 19 19 19 18 17 17 17 17 15 13 13 13 12 13 12 10 9 7 6 5 4 3 3 1 1 1 -2 -4 -6 -7 -7 -8 -9 -10 -10 -10 -9 -9 -8 -8 -8 -10 -11 -12 -12 -13 -12 -11 -11 -12 -11 -11 -12 -13 -13 -12 -12 -13 -12 -12 -12 -12 -12 -13 -13 -12 -12 -13 -13 -14 -15 -17 -19 -20 -20 -20
3 5 8 10 12 14 15 16 17 14 17 17 16 15 15 14 14 13 12 11 12 12 12 10 9 7 5 4 2 2 2 1 -0 -1 -4 -6 -7 -7 -8 -8 -8 -9 -10 -11 -11 -10 -10 -10 -10 -10 -11 -11 -11 -12 -12 -12 -12 -12 -12 -12 -11 -12 -12 -12 -13 -13 -13 -13 -13 -13 -13 -13 -12 -12 -12 -13 -14 -15 -17 -18 -20 -21 -21 -21 -21
3 5 8 10 12 13 13 14 14 15 16 15 14 13 12 12 12 11 10 11 11 11 11 9 7 6 4 2 0 -1 -2 -3 -3 -5 -6 -7 -8 -7 -7 -7 -8 -8 -9 -9 -10 -10 -11 -11 -10 -10 -10 -10 -11 -11 -12 -12 -12 -12 -12 -13 -11 -9 -10 -11 -12 -13 -13 -14 -14 -14 -14 -13 -13 -14 -14 -16 -16 -19 -19 -22 -23 -20 -21 -21 -21
6 7 8 9 10 11 12 13 14 14 13 13 12 11 10 10 9 9 9 9 9 9 8 7 5 5 2 -1 -2 -3 -4 -4 -5 -6 -6 -7 -7 -8 -8 -8 -8 -8 -8 -10 -10 -11 -12 -12 -12 -12 -12 -12 -11 -11 -11 -11 -12 -12 -13 -12 -5 -5 -7 -8 -10 -11 -13 -14 -15 -15 -15 -16 -18 -19 -20 -20 -21 -22 -22 -21 -22 -21 -21 -22 -21
6 7 7 8 9 9 10 11 12 12 11 11 10 9 8 8 7 7 7 7 7 7 5 5 4 2 1 -0 -3 -3 -4 -4 -5 -6 -6 -7 -7 -8 -8 -8 -9 -9 -9 -10 -11 -12 -12 -12 -12 -12 -12 -12 -12 -12 -12 -12 -12 -13 -9 -5 -3 -4 -6 -7 -10 -9 -11 -14 -19 -19 -18 -18 -20 -21 -23 -24 -25 -24 -21 -21 -22 -22 -23 -22 -22